Hourly Data Report for October 04, 2014

All times are specified in Local Standard Time (LST). Add 1 hour to adjust for Daylight Saving Time where and when it is observed.

OTTAWA INTL A
ONTARIO

45°19'00.000" N
75°40'00.000" W
114.90 m
6106001
71628
YOW

Download Data

Hourly Data (October 2014)
Hourly Data Report for October 4, 2014
Temp Definition
°C
Dew Point Temp Definition
°C
Rel Hum Definition
%
Wind Dir Definition
10's deg

Wind Spd Definition
km/h
Visibility Definition
km
Stn Press Definition
kPa
Hmdx Definition


Wind Chill Definition


Weather Definition


TIME
00:00 Legend Double Dagger 14.9 13.5 91 13 15 16.1 98.89     Rain Showers
01:00 Legend Double Dagger 15.0 13.6 91 13 18 24.1 98.83     Cloudy
02:00 Legend Double Dagger 14.7 13.6 93 12 16 24.1 98.75     LegendNANA
03:00 Legend Double Dagger 14.5 13.7 95 12 16 16.1 98.71     Rain Showers
04:00 Legend Double Dagger 14.6 14.0 96 12 15 16.1 98.65     Rain Showers
05:00 Legend Double Dagger 14.7 14.1 96 12 16 16.1 98.62     Rain Showers
06:00 Legend Double Dagger 14.6 14.1 97 13 16 12.9 98.61     Rain
07:00 Legend Double Dagger 14.6 14.1 97 14 16 4.8 98.63     Rain,Fog
08:00 Legend Double Dagger 14.7 13.9 95 16 21 16.1 98.61     Rain
09:00 Legend Double Dagger 14.7 14.1 96 17 17 16.1 98.62     Rain
10:00 Legend Double Dagger 14.8 14.0 95 16 18 16.1 98.60     Rain
11:00 Legend Double Dagger 15.2 14.6 96 18 17 16.1 98.61     Rain
12:00 Legend Double Dagger 15.3 13.5 89 19 14 24.1 98.56     LegendNANA
13:00 Legend Double Dagger 15.3 13.4 88 19 13 16.1 98.54     Rain
14:00 Legend Double Dagger 14.4 11.8 84 22 9 16.1 98.52     Rain
15:00 Legend Double Dagger 12.3 10.7 90 24 11 6.4 98.59     Rain,Fog
16:00 Legend Double Dagger 12.9 11.8 93 22 17 6.4 98.60     Rain,Fog
17:00 Legend Double Dagger 11.3 9.9 91 20 10 16.1 98.63     Rain
18:00 Legend Double Dagger 11.4 10.0 91 19 14 24.1 98.67     LegendNANA
19:00 Legend Double Dagger 10.8 9.6 92 19 12 24.1 98.69     Mostly Cloudy
20:00 Legend Double Dagger 10.8 9.1 89 22 16 24.1 98.77     LegendNANA
21:00 Legend Double Dagger 10.2 6.6 78 24 20 24.1 98.86     LegendNANA
22:00 Legend Double Dagger 9.3 5.7 78 23 15 24.1 98.85     Cloudy
23:00 Legend Double Dagger 8.7 5.8 82 23 15 24.1 98.89     LegendNANA

Notes on Data Quality.

Legend

  • E = Estimated
  • M = Missing
  • NA = Not Available
  • ‡ = Partner data that is not subject to review by the National Climate Archives
Date modified: